Mongaup Valley, NY

7:49 AM EDT on September 25, 2016 (GMT -0400)
Sullivan County International

Weather History for KMSV - November, 2012

Change the Weather History Date:

Saturday, November 24, 2012

  Actual Average Record
Temperature  
Mean Temperature 34 °F -  
Max Temperature 39 °F 41 °F 64 °F (1999)
Min Temperature 28 °F 27 °F 8 °F (2000)
Degree Days  
Heating Degree Days 32    
Moisture  
Dew Point 19 °F    
Average Humidity 58    
Maximum Humidity 81    
Minimum Humidity 41    
Precipitation  
Precipitation 0.00 in - - ()
Sea Level Pressure  
Sea Level Pressure 29.71 in    
Wind  
Wind Speed 15 mph (WNW)    
Max Wind Speed 24 mph    
Max Gust Speed 38 mph    
Visibility 10 miles    
Events      
Averages and records for this station are not official NWS values.
T = Trace of Precipitation, MM = Missing Value Source: NWS Daily Summary

Daily Weather History Graph

Daily Weather History Graph

Search for Another Location

Airport or City:

Trip Planner

Search our weather history database for the weather conditions in past years. The results will help you decide how hot, cold, wet, or windy it might be!

Date:

Astronomy

Nov. 24, 2012 Rise Set
Actual Time 6:59 AM EST 4:32 PM EST
Civil Twilight 6:29 AM EST 5:02 PM EST
Nautical Twilight 5:54 AM EST 5:36 PM EST
Astronomical Twilight 5:21 AM EST 6:10 PM EST
Moon 2:17 PM EST (11/24) 3:11 AM EST (11/24)
Length of Visible Light 10h 33m
Length of Day
9h 32m
Waxing Gibbous, 87% of the Moon is Illuminated
Nov 24
Waxing Gibbous
Nov 28
Full
Dec 6
Last Quarter
Dec 13
New
Dec 20
First Quarter

Hourly Weather History & Observations

Time (EST) Temp. Windchill Dew Point Humidity Pressure Visibility Wind Dir Wind Speed Gust Speed Precip Events Conditions
12:15 AM 39.2 °F 31.2 °F 32.0 °F 75% 29.67 in 10.0 mi WNW 13.8 mph - N/A   Overcast
12:35 AM 39.2 °F 31.2 °F 33.8 °F 81% 29.67 in 10.0 mi WNW 13.8 mph 19.6 mph N/A   Overcast
12:55 AM 39.2 °F 32.5 °F 32.0 °F 75% 29.67 in 10.0 mi WNW 10.4 mph 20.7 mph N/A   Overcast
1:15 AM 39.2 °F 32.0 °F 32.0 °F 75% 29.67 in 10.0 mi WNW 11.5 mph 16.1 mph N/A   Overcast
1:35 AM 39.2 °F 31.6 °F 32.0 °F 75% 29.67 in 10.0 mi West 12.7 mph 19.6 mph N/A   Overcast
1:55 AM 37.4 °F 27.2 °F 21.2 °F 52% 29.68 in 10.0 mi West 19.6 mph 31.1 mph N/A   Overcast
2:15 AM 37.4 °F 27.2 °F 21.2 °F 52% 29.68 in 10.0 mi West 19.6 mph 27.6 mph N/A   Overcast
2:35 AM 35.6 °F 27.1 °F 21.2 °F 56% 29.69 in 10.0 mi West 12.7 mph 29.9 mph N/A   Overcast
2:55 AM 35.6 °F 25.5 °F 21.2 °F 56% 29.68 in 10.0 mi WNW 17.3 mph 24.2 mph N/A   Overcast
3:15 AM 35.6 °F 25.9 °F 21.2 °F 56% 29.68 in 10.0 mi WNW 16.1 mph 23.0 mph N/A   Scattered Clouds
3:35 AM 33.8 °F 25.8 °F 21.2 °F 60% 29.68 in 10.0 mi WNW 10.4 mph 21.9 mph N/A   Partly Cloudy
3:55 AM 33.8 °F 25.3 °F 21.2 °F 60% 29.68 in 10.0 mi WNW 11.5 mph - N/A   Mostly Cloudy
4:15 AM 33.8 °F 24.3 °F 21.2 °F 60% 29.68 in 10.0 mi West 13.8 mph 20.7 mph N/A   Overcast
4:55 AM 33.8 °F 24.3 °F 19.4 °F 56% 29.68 in 10.0 mi WNW 13.8 mph 23.0 mph N/A   Mostly Cloudy
5:15 AM 33.8 °F 24.8 °F 19.4 °F 56% 29.69 in 10.0 mi WNW 12.7 mph 24.2 mph N/A   Mostly Cloudy
5:35 AM 33.8 °F 24.3 °F 19.4 °F 56% 29.69 in 10.0 mi WNW 13.8 mph 21.9 mph N/A   Mostly Cloudy
5:55 AM 33.8 °F 24.3 °F 19.4 °F 56% 29.69 in 10.0 mi WNW 13.8 mph 24.2 mph N/A   Overcast
6:15 AM 33.8 °F 22.5 °F 17.6 °F 52% 29.69 in 10.0 mi WNW 19.6 mph 27.6 mph N/A   Overcast
6:35 AM 32.0 °F 21.6 °F 17.6 °F 55% 29.70 in 10.0 mi WNW 15.0 mph 31.1 mph N/A   Overcast
6:55 AM 32.0 °F 23.0 °F 19.4 °F 60% 29.71 in 10.0 mi West 11.5 mph 24.2 mph N/A   Overcast
7:15 AM 32.0 °F 23.6 °F 17.6 °F 55% 29.71 in 10.0 mi WNW 10.4 mph 20.7 mph N/A   Overcast
7:35 AM 32.0 °F 22.5 °F 19.4 °F 60% 29.71 in 10.0 mi West 12.7 mph 21.9 mph N/A   Overcast
7:55 AM 32.0 °F 23.6 °F 19.4 °F 60% 29.72 in 10.0 mi WNW 10.4 mph 21.9 mph N/A   Overcast
8:15 AM 32.0 °F 24.8 °F 19.4 °F 60% 29.71 in 10.0 mi WNW 8.1 mph 20.7 mph N/A   Overcast
8:35 AM 32.0 °F 22.1 °F 19.4 °F 60% 29.71 in 10.0 mi WNW 13.8 mph 19.6 mph N/A   Overcast
8:55 AM 32.0 °F 22.5 °F 19.4 °F 60% 29.71 in 10.0 mi WNW 12.7 mph 26.5 mph N/A   Overcast
9:15 AM 33.8 °F 23.2 °F 19.4 °F 56% 29.71 in 10.0 mi West 17.3 mph 28.8 mph N/A   Overcast
9:35 AM 33.8 °F 21.3 °F 17.6 °F 52% 29.71 in 10.0 mi WNW 24.2 mph 36.8 mph N/A   Overcast
9:55 AM 33.8 °F 25.8 °F 17.6 °F 52% 29.71 in 10.0 mi West 10.4 mph 25.3 mph N/A   Overcast
10:15 AM 33.8 °F 21.9 °F 17.6 °F 52% 29.71 in 10.0 mi NW 21.9 mph 38.0 mph N/A   Overcast
10:35 AM 33.8 °F 24.3 °F 15.8 °F 48% 29.71 in 10.0 mi WNW 13.8 mph 28.8 mph N/A   Overcast
10:55 AM 33.8 °F 24.8 °F 17.6 °F 52% 29.70 in 10.0 mi West 12.7 mph 26.5 mph N/A   Overcast
11:15 AM 33.8 °F 23.2 °F 17.6 °F 52% 29.70 in 10.0 mi WNW 17.3 mph 27.6 mph N/A   Overcast
11:35 AM 33.8 °F 22.8 °F 17.6 °F 52% 29.69 in 9.0 mi West 18.4 mph 32.2 mph N/A   Overcast
11:55 AM 33.8 °F 22.8 °F 17.6 °F 52% 29.69 in 10.0 mi WNW 18.4 mph 32.2 mph N/A   Overcast
12:15 PM 33.8 °F 22.5 °F 19.4 °F 56% 29.68 in 10.0 mi WNW 19.6 mph 27.6 mph N/A   Overcast
12:35 PM 33.8 °F 22.8 °F 17.6 °F 52% 29.67 in 10.0 mi West 18.4 mph 28.8 mph N/A   Overcast
12:55 PM 35.6 °F 24.5 °F 15.8 °F 44% 29.67 in 10.0 mi WNW 20.7 mph 32.2 mph N/A   Overcast
1:15 PM 33.8 °F 23.9 °F 17.6 °F 52% 29.68 in 10.0 mi WNW 15.0 mph 25.3 mph N/A   Overcast
1:35 PM 33.8 °F 23.2 °F 15.8 °F 48% 29.67 in 10.0 mi WNW 17.3 mph 28.8 mph N/A   Overcast
1:55 PM 33.8 °F 22.5 °F 15.8 °F 48% 29.68 in 10.0 mi NW 19.6 mph 27.6 mph N/A   Mostly Cloudy
2:15 PM 33.8 °F 22.2 °F 14.0 °F 44% 29.67 in 10.0 mi WNW 20.7 mph 32.2 mph N/A   Mostly Cloudy
2:35 PM 35.6 °F 25.5 °F 15.8 °F 44% 29.67 in 10.0 mi West 17.3 mph 31.1 mph N/A   Mostly Cloudy
2:55 PM 33.8 °F 22.8 °F 12.2 °F 41% 29.68 in 10.0 mi West 18.4 mph 28.8 mph N/A   Mostly Cloudy
3:15 PM 32.0 °F 19.8 °F 14.0 °F 48% 29.69 in 10.0 mi West 20.7 mph 31.1 mph N/A   Scattered Clouds
3:35 PM 33.8 °F 23.5 °F 15.8 °F 48% 29.69 in 10.0 mi WNW 16.1 mph 27.6 mph N/A   Mostly Cloudy
3:55 PM 33.8 °F 22.8 °F 15.8 °F 48% 29.70 in 10.0 mi WNW 18.4 mph 24.2 mph N/A   Overcast
4:15 PM 32.0 °F 20.5 °F 15.8 °F 51% 29.71 in 5.0 mi NW 18.4 mph 32.2 mph N/A   Overcast
4:35 PM 30.2 °F 18.9 °F 17.6 °F 60% 29.70 in 10.0 mi WNW 16.1 mph 27.6 mph N/A   Overcast
4:55 PM 30.2 °F 19.3 °F 15.8 °F 55% 29.71 in 10.0 mi WNW 15.0 mph 21.9 mph N/A   Mostly Cloudy
5:15 PM 30.2 °F 19.8 °F 15.8 °F 55% 29.72 in 10.0 mi WNW 13.8 mph 23.0 mph N/A   Mostly Cloudy
5:35 PM 30.2 °F 19.3 °F 17.6 °F 60% 29.73 in 10.0 mi WNW 15.0 mph 26.5 mph N/A   Overcast
5:55 PM 30.2 °F 18.5 °F 15.8 °F 55% 29.74 in 10.0 mi WNW 17.3 mph 29.9 mph N/A   Overcast
6:15 PM 30.2 °F 20.2 °F 15.8 °F 55% 29.74 in 10.0 mi WNW 12.7 mph 26.5 mph N/A   Overcast
6:35 PM 28.4 °F 16.6 °F 21.2 °F 74% 29.74 in 3.0 mi WNW 16.1 mph 26.5 mph N/A   Mostly Cloudy
6:55 PM 28.4 °F 14.7 °F 19.4 °F 69% 29.74 in 10.0 mi WNW 21.9 mph 26.5 mph N/A   Scattered Clouds
7:15 PM 28.4 °F 17.0 °F 19.4 °F 69% 29.75 in 8.0 mi NW 15.0 mph 27.6 mph N/A   Mostly Cloudy
7:35 PM 28.4 °F 16.6 °F 19.4 °F 69% 29.75 in 10.0 mi WNW 16.1 mph 23.0 mph N/A   Overcast
7:55 PM 28.4 °F 18.0 °F 19.4 °F 69% 29.75 in 10.0 mi WNW 12.7 mph 21.9 mph N/A   Overcast
8:15 PM 28.4 °F 17.5 °F 19.4 °F 69% 29.75 in 10.0 mi WNW 13.8 mph 25.3 mph N/A   Overcast
8:35 PM 28.4 °F 17.0 °F 19.4 °F 69% 29.76 in 10.0 mi WNW 15.0 mph 26.5 mph N/A   Overcast
8:55 PM 28.4 °F 15.8 °F 17.6 °F 64% 29.76 in 10.0 mi WNW 18.4 mph 27.6 mph N/A   Overcast
9:15 PM 28.4 °F 16.6 °F 17.6 °F 64% 29.76 in 10.0 mi WNW 16.1 mph 26.5 mph N/A   Overcast
9:35 PM 28.4 °F 16.6 °F 17.6 °F 64% 29.76 in 10.0 mi West 16.1 mph 23.0 mph N/A   Overcast
9:55 PM 28.4 °F 16.2 °F 17.6 °F 64% 29.76 in 10.0 mi WNW 17.3 mph 24.2 mph N/A   Overcast
10:15 PM 28.4 °F 19.1 °F 17.6 °F 64% 29.77 in 10.0 mi WNW 10.4 mph 18.4 mph N/A   Overcast
10:35 PM 28.4 °F 16.6 °F 19.4 °F 69% 29.77 in 10.0 mi WNW 16.1 mph 23.0 mph N/A   Overcast
10:55 PM 28.4 °F 16.2 °F 17.6 °F 64% 29.77 in 10.0 mi WNW 17.3 mph 23.0 mph N/A   Overcast
11:15 PM 28.4 °F 15.8 °F 17.6 °F 64% 29.77 in 10.0 mi West 18.4 mph 26.5 mph N/A   Mostly Cloudy
11:35 PM 28.4 °F 15.8 °F 17.6 °F 64% 29.77 in 10.0 mi WNW 18.4 mph 26.5 mph N/A   Mostly Cloudy
11:55 PM 28.4 °F 16.2 °F 17.6 °F 64% 29.77 in 10.0 mi WNW 17.3 mph 32.2 mph N/A   Overcast